Regional Weather Roundup
Issued by NWS Bismarck, ND

Home | Current Version | Previous Version | Text Only | Print | Product List | Glossary On
Versions: 1 2 3 4 5 6 7 8 9 10 11 12 13 14 15 16 17 18 19 20 21 22 23 24 25 26 27 28 29 30 31 32 33 34 35 36 37 38 39 40 41 42 43 44 45 46 47 48 49 50
000
ASUS43 KBIS 222310
RWRBIS

NWR BROADCAST TEXT
NATIONAL WEATHER SERVICE BISMARCK ND
500 PM CST WED FEB 22 2017

NOTE: "FAIR" INDICATES FEW OR NO CLOUDS BELOW 12,000 FEET WITH NO
SIGNIFICANT WEATHER AND/OR OBSTRUCTIONS TO VISIBILITY.


CITY           SKY/WX    TMP DP  RH WIND       PRES   REMARKS
WILLISTON      CLOUDY    34  23  64 N6        29.95R
MINOT          FAIR      34  24  67 NW12      29.92R
MINOT AFB      FAIR      33  25  72 NW12      29.92R
BISMARCK       CLOUDY    34  31  88 NE9       29.90R
DICKINSON      CLOUDY    29  25  85 N8        29.88R
GARRISON         N/A     32  26  78 N6        29.91R
HETTINGER ARPT LGT SNOW  31  27  85 N16       29.89R FOG     WCI  20
JAMESTOWN      CLOUDY    32  27  81 N17       29.84R
CARRINGTON     CLOUDY    32  27  80 N17       29.90R
HAZEN            N/A    N/A N/A N/A NE10      29.93R
MANDAN         CLOUDY    32  32 100 N10       29.90R FOG
RUGBY            N/A     32  28  86 NW8       29.90R
STANLEY        FAIR      30  27  86 N6        29.95R
TIOGA          CLOUDY    32  28  86 N13       29.95R
WATFORD CITY   FAIR      30  25  80 N6        29.94S
$$

CITY           SKY/WX    TMP DP  RH WIND       PRES   REMARKS
GRAND FORKS    MOCLDY    35  24  64 N15       29.84R
GRAND FORKS AF FAIR      33  27  77 N14       29.85R
DEVILS LAKE    FAIR      32  26  78 N10       29.88R
FARGO          CLOUDY    35  31  85 N18       29.80R
CAVALIER         N/A     32  25  74 N9        29.87R
GRAFTON        FAIR      34  30  86 N12       29.87R
GWINNER        CLOUDY    32  32 100 N20       29.80R
ROLLA          FAIR      32  25  74 NW13      29.89R
$$

CITY           SKY/WX    TMP DP  RH WIND       PRES   REMARKS
ABERDEEN       CLOUDY    34  30  85 N22G29    29.81R
MOBRIDGE       CLOUDY    36  31  82 N12       29.82R
BUFFALO          N/A     34  30  85 N13       29.81R
RAPID CITY     FAIR      44  30  57 N33G41    29.79R
GLASGOW        PTSUNNY   32  28  85 SW3       29.96R
SIDNEY         CLOUDY    31  26  82 NE7       29.96R
WOLF POINT     CLOUDY    34  26  72 E6        29.97S
GLENDIVE       FLURRIES  30  27  88 N12       29.94R
MILES CITY     CLOUDY    35  32  88 N9        29.92R
BAKER          CLOUDY    31  28  89 NW9       29.90R
$$

CITY           SKY/WX    TMP DP  RH WIND       PRES   REMARKS
BILLINGS       PTSUNNY   33  32  96 NE9       29.87S
GREAT FALLS    PTSUNNY   36  25  64 N10       29.90R
REGINA         FLURRIES  34  28  80 NW8       29.93R
ESTEVAN        PTSUNNY   32  28  86 NW12      29.94R
$$





USA.gov is the U.S. government's official web portal to all federal, state and local government web resources and services.